{"data":{"norad_id":68066,"intl_designator":"2026-041AC","name":"STARLINK-36976","alt_names":[],"object_type":"PAYLOAD","status":"ACTIVE","operator":null,"country":"US","launch_date":"2026-03-02","launch_site_code":"AFETR","launch_vehicle":null,"mission":null,"orbit_class":"UNKNOWN","rcs_meters":null,"size_class":null,"mass_kg":null,"dimensions":null,"purposes":["comms"],"wikipedia_slug":null,"has_3d_model":false,"image_url":null,"decayed_at":null,"tle_current":{"epoch":"2026-09-20T04:23:40.513920Z","epoch_age_seconds":87029,"freshness":"FRESH","line1":"1 68066U 26041AC  26263.18310780  .00015056  00000+0  45603-3 0  9993","line2":"2 68066  53.1560 220.9683 0001120 100.8698 259.2431 15.34387498 31242","mean_motion":15.34387498,"eccentricity":0.000112,"inclination_deg":53.156,"raan_deg":220.9683,"arg_perigee_deg":100.8698,"mean_anomaly_deg":259.2431,"bstar":0.00045603,"rev_number":3124,"period_min":93.848522741287,"perigee_km":461.97422076939,"apogee_km":463.50657730678,"semimajor_km":6840.8773990381,"source":"CELESTRAK","updated_at":"2026-09-20T09:00:43.752335Z"}}}